Regional Weather Roundup
Issued by NWS Wakefield, VA

Home | Current Version | Previous Version | Text Only | Print | Product List | Glossary On
Versions: 1 2 3 4 5 6 7 8 9 10 11 12 13 14 15 16 17 18 19 20 21 22 23 24 25 26 27 28 29 30 31 32 33 34 35 36 37 38 39 40 41 42 43 44 45 46 47 48 49 50
000
ASUS41 KAKQ 211110
RWRAKQ

REGIONAL WEATHER ROUNDUP
NATIONAL WEATHER SERVICE WAKEFIELD VA
600 AM EST SUN DEC 21 2014

Note: "fair" indicates few or no clouds below 12,000 feet with no
significant weather and/or obstructions to visibility. * = Denotes
station may not report precipitation (e.g., rain,snow,etc.),
thunder or fog.

VAZ042-051-052>054-056-211200-
NORTHERN VIRGINIA

CITY           SKY/WX    TMP DP  RH WIND       PRES   REMARKS
WASH NATIONAL  CLOUDY    37  22  54 NW6       30.34R
DULLES         CLOUDY    32  24  72 CALM      30.32R
FORT BELVOIR   CLOUDY    32  27  81 CALM      30.33R
QUANTICO       CLOUDY    34  27  75 NW3       30.34R
FREDERICKSBRG* CLOUDY    34  30  83 CALM      30.32R
STAFFORD*      CLOUDY    32  28  83 CALM      30.37R
WARRENTON      CLOUDY    33  31  93 CALM      30.31R
CULPEPER*      CLOUDY    34  30  86 CALM      30.32R
MANASSAS*      CLOUDY    34  28  80 CALM      30.32R
LEESBURG*      CLOUDY    32  28  86 CALM      30.32R
WINCHESTER     CLOUDY    32  21  64 CALM      30.29R
FRONT ROYAL*   CLOUDY    32  25  74 CALM      30.28S
LURAY*         CLOUDY    32  28  86 CALM      30.28R
$$

VAZ048-049-060>072-079>083-211200-
CENTRAL AND SOUTH CENTRAL VIRGINIA

CITY           SKY/WX    TMP DP  RH WIND       PRES   REMARKS
RICHMOND       CLOUDY    36  26  67 CALM      30.31R
CHESTERFIELD*  CLOUDY    36  18  48 CALM      30.32R
PETERSBURG*    CLOUDY    36  32  85 CALM      30.31S
HANOVER        CLOUDY    33  28  81 CALM      30.32R
TAPPAHANNOCK*  CLOUDY    33  28  79 CALM      30.32R
QUINTON*       CLOUDY    33  29  83 SE3       30.31R
CHARLOTTSVILLE CLOUDY    32  26  78 NE3       30.28R
GORDONSVILLE*  CLOUDY    31  28  88 CALM      30.30R
ORANGE*        CLOUDY    34  30  86 CALM      30.32R
LOUISA*        CLOUDY    34  28  80 CALM      30.29R
BUMPASS*       CLOUDY    32  26  79 CALM      30.30R
FARMVILLE*     CLOUDY    36  29  76 CALM      30.28R
CREWE*         CLOUDY    34  28  80 CALM      30.28S
FORT PICKETT*  CLOUDY    34  28  78 CALM      30.29R
CHASE CITY*    CLOUDY    37  35  90 CALM      30.28R
CLARKSVILLE*   CLOUDY    36  34  93 CALM      30.27S
SOUTH HILL*    CLOUDY    33  29  86 CALM      30.34R
LAWRENCEVILLE* CLOUDY    34  29  83 CALM      30.29R
EMPORIA*       CLOUDY    32  30  93 CALM      30.32R
$$

VAZ088>098-211200-
SOUTHEAST VIRGINIA

CITY           SKY/WX    TMP DP  RH WIND       PRES   REMARKS
NORFOLK        CLOUDY    37  30  75 N8        30.29R
VIRGINIA BEACH PTCLDY    28  25  88 NE5       30.29R
NORFOLK NAVAL  MOCLDY    41  28  60 N9        30.31R
WEST POINT*    CLOUDY    37  29  73 CALM      30.33R
SALUDA*        CLOUDY    35  27  73 N5        30.31R
NEWPORT NEWS   LGT RAIN  36  29  75 N5        30.31R
LANGLEY AFB    CLOUDY    34  29  83 NW3       30.31R
FORT EUSTIS    CLOUDY    35  29  78 CALM      30.30R
WILLIAMSBURG*  CLOUDY    37  34  87 CALM      30.32R
HR EXEC AP*    CLOUDY    30  27  86 CALM      30.32S
FRANKLIN*      CLOUDY    32  30  93 CALM      30.31R
WAKEFIELD      CLOUDY    34  29  82 CALM      30.30S
$$

VAZ020-022-025-037-045-211200-
WEST CENTRAL AND SOUTHWEST VIRGINIA

CITY           SKY/WX    TMP DP  RH WIND       PRES   REMARKS
STAUNTON*      CLOUDY    32  27  81 CALM      30.27R
WAYNESBORO*    CLOUDY    31  25  78 CALM      30.25R
HOT SPRINGS VA CLOUDY    29  29 100 W7        30.12R FOG
LYNCHBURG      CLOUDY    33  29  85 CALM      30.26S
DANVILLE       CLOUDY    37  33  85 CALM      30.27R
SOUTH BOSTON*  CLOUDY    35  33  92 CALM      30.28R
MARTINSVILLE   CLOUDY    37  34  89 CALM      30.27R
ROANOKE        CLOUDY    36  27  69 CALM      30.26R
BLACKSBURG     CLOUDY    34  30  86 CALM      30.23R
DUBLIN*        CLOUDY    36  35  95 CALM      30.22R
MARION*        CLOUDY    37  35  91 W6        30.21R
HILLSVILLE*    CLOUDY    34  31  91 CALM      30.18R
RICHLANDS*     CLOUDY    32  31  95 NE3       30.19R FOG
WISE*          PTCLDY    30  30 100 CALM      30.20R FOG
ABINGDON*      CLOUDY    37  37  98 CALM      30.20R FOG
$$

MDZ021>025-VAZ099-100-211200-
SOUTHERN MARYLAND AND THE DELMARVA PENINSULA

CITY           SKY/WX    TMP DP  RH WIND       PRES   REMARKS
PATUXENT RIVER CLOUDY    33  25  72 W6        30.31R
BAY BRIDGE APT   N/A     34  28  80 CALM      30.33R
LEONARDTOWN    CLOUDY    32  27  80 CALM      30.33R
DOVER          CLOUDY    31  26  81 W5        30.30R
GEORGETOWN     CLOUDY    30  26  85 CALM      30.31R
EASTON         CLOUDY    32  32 100 CALM      30.36R
CAMBRIDGE      CLOUDY    32  30  93 CALM      30.31R
SALISBURY      CLOUDY    32  27  81 CALM      30.31R
OCEAN CITY     CLOUDY    31  27  85 NW3       30.31R
WALLOPS ISLAND CLOUDY    32  26  78 N5        30.32R
ACCOMACK*      CLOUDY    32  27  80 CALM      30.31R
$$

NCZ012>017-030>032-211200-
NORTH CENTRAL AND EASTERN NORTH CAROLINA

CITY           SKY/WX    TMP DP  RH WIND       PRES   REMARKS
ROANOKE RAPIDS CLOUDY    32  32 100 CALM      30.30R
RALEIGH        CLOUDY    38  34  85 CALM      30.27R FOG
ELIZABETH CITY MOCLDY    38  30  73 N8        30.30R
AHOSKIE*       CLOUDY    31  29  92 CALM      30.31R
EDENTON*         N/A     30  29  95 CALM      30.29S
CURRITUCK*     CLEAR     31  29  92 CALM      30.30R
KILL DEVIL HLS CLEAR     40  33  76 N5        30.27R
MANTEO         CLEAR     39  34  81 N6        30.28R
CAPE HATTERAS  CLEAR     43  37  79 N8G17     30.25R
TARBORO*       MOSUNNY   28  28 100 CALM      30.30R FOG
GOLDSBORO      CLEAR     32  31  98 CALM      30.27R
WASHINGTON     CLEAR     32  30  93 CALM      30.29R
GREENVILLE     CLEAR     32  30  93 CALM      30.29R
NEW BERN       PTCLDY    36  32  85 N5        30.28R
WILMINGTON     LGT RAIN  38  34  85 NE9       30.24S
$$

VAZ048-211200-
ELSEWHERE

CITY           SKY/WX    TMP DP  RH WIND       PRES   REMARKS
HARRISBURG PA  MOCLDY    28  22  78 NW6       30.30R
BALTIMORE      CLOUDY    33  22  63 CALM      30.31R
ANNAPOLIS      CLOUDY    34  28  79 N5        30.32R
ANDREWS AFB    CLOUDY    31  25  76 CALM        N/A
PHILADELPHIA   MOCLDY    32  22  66 NW5       30.32R
HENDERSON NC   CLOUDY    33  32  94 CALM      30.27S FOG
GREENSBORO     CLOUDY    39  35  86 CALM      30.24R
ROCKY MOUNT    CLEAR     31  29  92 NE3       30.29R
$$

VAZ100-211200-
MARINE

STATION/POSITION TIME  TEMP    WIND        PRES    WAVE   SWELL
                       AIR SEA DIR/SP/G            HT/PER HT/PER
                 (UTC) (F)     (DEG/KT/KT) (MB)    (FT/S) (FT/S)
CAPE MAY NJ      1100   31 42   90/  2/  3 1025.7S
LEWES DE         1100   31 42  250/  3/  4 1026.0R
15NM E FENWICK I 1100   36 45              1025.5S   2/10
OCEAN-CITY-INLET 1100   34 43  340/  3/  4 1025.7S
WACHAPREAGUE VA  1100   33 40  340/  2/  3 1026.3R
THOMAS POINT MD  1100   35 41  340/  4/  5 1027.9R
GOOSES REEF MD   1100   36     VRB  4/  6  1025.4R
COVE POINT MD    1100   34     320/  4/  5 1026.4R
SOLOMONS ISLAND  1100      42                N/A
BISHOPS HEAD MD  1100   34 37  350/  2/  3 1025.7S
POTOMAC MD       1100   36     360/  6/  8 1025.4R
CAMBRIDGE MD     1100   33 40   CALM  /  1 1026.2R
LEWISETTA VA     1100   36 41  360/  2/  3 1026.3R
RAPPAHANNOCK LGT 1100           50/  7/  8 1026.6R
STINGRAY PT      1100   38      20/  6/  8 1026.6R
YORK RVR RNG VA  1100   38      10/  7/ 10 1025.6S
YORKTOWN VA      1100   36 45   10/  6/  6 1026.0R
JAMESTOWN VA     1100   35      50/  4/  4   N/A
DOMINION TERM VA 1100   36      60/  2/  3 1026.0S
KIPTOPEKE VA     1100      48   50/  4/  6   N/A
CHES BAY BRIDGE  1100   38 45  360/  7/  9 1025.6S
CAPE HENRY VA    1100   38      10/  7/ 10 1024.9R
CHESAPEAKE LGHT  1000   39      10/ 11/ 12 1025.9F
WILLOUBY STN VA  1100   38     360/  7/  8 1026.4R
S CRANEY ISL VA  1100           20/  8/  9 1025.8S
CAPE HENRY BUOY  1100      49                N/A     2/11
1ST LANDING BUOY 1100   38      10/  8/ 10 1025.6R
CAPE CHARLES BUO 1100      47                N/A     1/10   2/10
64NM E OF VA BCH 1100   44 54  350/ 12/ 14 1024.6R   2/ 3   2/10
DUCK PIER NC     1100   42 46   10/  9/ 12 1024.5R
44100 DUCK FRF   1100      52                N/A     2/ 3
44056 DUCK FRF   1100      46                N/A     2/11
OREGON INLET NC  1100   42 49  360/  7/ 11 1024.9R
HATTERAS NC      1100   45 49   20/ 15/ 19 1024.4R
DIAMOND SHLS NC  1100   49                 1023.7R   3/ 4
CAPE LOOKOUT NC  1000   42      20/ 11/ 13 1023.6S
$$



USA.gov is the U.S. government's official web portal to all federal, state and local government web resources and services.